Home   Weather   St. Pölten   Past weeks
Flag for Austria

Past Weather in St. Pölten, Lower Austria, Austria — Yesterday and Last 2 Weeks

Now
28 °F

Passing clouds.


Feels Like: 28 °F
Forecast: 34 / 23 °F
Wind: 2 mph from North

Location: Tulln Airport

Current Time: Jan 18, 2019 at 9:56:52 pm

Latest Report: Jan 18, 2019 at 8:50 pm


Visibility: 15 mi

Pressure: 30.15 "Hg

Humidity: 74%

Dew Point: 21 °F

Location of St. PöltenLocation

Past Weather in St. Pölten — Graph

°F

St. Pölten Temperature Yesterday

Maximum temperature yesterday: 54 °F (at 12:50 pm)
Minimum temperature yesterday: 30 °F (at 6:50 am)
Average temperature yesterday: 43 °F

High & Low Weather Summary for the Past Weeks

 TemperatureHumidityPressure
High54 °F (Jan 17, 12:50 pm)100% (Jan 4, 4:50 pm)30.51 "Hg (Jan 4, 4:50 pm)
Low27 °F (Jan 4, 4:50 am)47% (Jan 17, 12:50 pm)29.39 "Hg (Jan 13, 9:50 pm)
Average36 °F77%29.97 "Hg
* Reported Jan 3 7:50 pm — Jan 18 7:50 pm, St. Pölten. Weather by CustomWeather, © 2019

Note: Actual official high and low records may vary slightly from our data, if they occured in-between our weather recording intervals... More about our weather records

Advertising

St. Pölten Weather History for the Previous 24 Hours

Scroll right to see more
 ConditionsComfort  
Time TempWeatherWind HumidityBarometerVisibility
7:50 pm
Fri, Jan 18
30 °FPassing clouds.2 mph75%30.15 "Hg16 mi
6:50 pm32 °FPassing clouds.8 mph75%30.15 "Hg19 mi
5:50 pm34 °FPassing clouds.6 mph70%30.12 "Hg19 mi
4:50 pm37 °FPassing clouds.6 mph60%30.09 "Hg25 mi
3:50 pm37 °FPartly sunny.10 mph56%30.07 "Hg25 mi
2:50 pm37 °FScattered clouds.12 mph65%30.07 "Hg25 mi
1:50 pm37 °FPartly sunny.13 mph65%30.04 "Hg25 mi
12:50 pm41 °FPartly sunny.16 mph49%30.01 "Hg25 mi
11:50 am39 °FPartly sunny.16 mph75%30.01 "Hg22 mi
11:20 am39 °FScattered clouds.17 mph75%30.01 "Hg19 mi
10:50 am37 °FScattered clouds.14 mph75%30.01 "Hg19 mi
10:20 am36 °FBroken clouds.13 mph87%30.01 "Hg19 mi
9:50 am36 °FBroken clouds.12 mph87%30.01 "Hg19 mi
9:20 am36 °FPartly sunny.9 mph87%29.98 "Hg12 mi
8:50 am34 °FPartly sunny.13 mph87%29.98 "Hg5 mi
8:20 am36 °FSnow showers. Fog.15 mph81%29.95 "Hg1 mi
7:50 am37 °FSnow flurries. Fog.15 mph70%29.95 "Hg3 mi
6:50 am39 °FPassing clouds.10 mph75%29.89 "Hg9 mi
5:50 am39 °FPassing clouds.14 mph75%29.86 "Hg9 mi
4:50 am39 °FPassing clouds.21 mph75%29.83 "Hg12 mi
9:50 pm
Thu, Jan 17
45 °FPassing clouds.21 mph71%29.80 "Hg12 mi
Weather by CustomWeather, © 2019

See weather overview